Starlink 31581

operational
NORAD ID: 59474 Int'l Des: 2024-068 Owner: SPXS Country: US Constellation: starlink
LEOCIRCULAR

Über Starlink 31581

Beschreibung wird geladen...

Live-Position

3D-Globus wird geladen...

Nächste Überflüge

Höhenverlauf

Altitude vs Time

uPlot chart will show altitude changes over time

Zweizeiliger Elementsatz

1 59474U 24068V 26033.83094029 -.00000138 00000-0 45126-5 0 9994
2 59474 42.9991 224.2622 0001238 269.2417 90.8293 15.27575860103270
Epoch: 2. Feb. 2026 • Age: 19 hours

Aktueller Status

Höhe 493.4 km
Geschwindigkeit 7.62 km/s
Subsatellitenpunkt -37.77°S, 172.92°E
Startdatum 10. Apr. 2024
Alter 1.8 years
Typ internet

Technische Details

Klassifizierung Payload
Masse 730.00 kg
Trockenmasse 700.00 kg
Gesamtmasse 730.00 kg
Länge 0.30 m
Durchmesser 4.10 m
Spannweite 29.00 m
Form Box + pan
Hersteller SPXS
Bus-Typ Starlink V2M
Phasenstatus In Orbit
Besitzer/Staat SPXS/US

Große Konstellationen

Loading constellations...